When you browse on this site, cookies collect data to enhance your experience and personalize the content and advertising you see.
Visit our Privacy Policy to learn more. By continuing to use the site, you agree to this use of cookies and data.
  • In Spain
  • List of Countries
  • For 7 days
  • Water Temperature
  • Satellite Maps
  • Weather Map
  • Weather Widgets
  • user-avatar
    Login

    Hourly Weather Canberra

    Today, 22 February, Friday

    Time Temperature Precipitation Wind Pressure Humidity
    00:00 +16°C° 0 mm 3 mps 712 mmHg 84%
    01:00 +16°C° 0 mm 3 mps 712 mmHg 84%
    02:00 +16°C° 0 mm 3 mps 712 mmHg 86%
    03:00 +15°C° 0 mm 2 mps 712 mmHg 89%
    04:00 +15°C° 0 mm 1 mps 712 mmHg 88%
    05:00 +15°C° 0 mm 1 mps 712 mmHg 85%
    06:00 +16°C° 0 mm 1 mps 713 mmHg 82%
    07:00 +16°C° 0 mm 2 mps 713 mmHg 80%
    08:00 +18°C° 0 mm 2 mps 713 mmHg 68%
    09:00 +20°C° 0 mm 2 mps 713 mmHg 56%
    10:00 +24°C° 0 mm 3 mps 714 mmHg 44%
    11:00 +25°C° 0 mm 3 mps 714 mmHg 38%
    12:00 +27°C° 0 mm 3 mps 714 mmHg 33%
    13:00 +28°C° 0 mm 4 mps 713 mmHg 27%
    14:00 +28°C° 0 mm 4 mps 713 mmHg 29%
    15:00 +28°C° 0 mm 4 mps 713 mmHg 30%
    16:00 +27°C° 0 mm 5 mps 712 mmHg 32%
    17:00 +25°C° 0 mm 5 mps 712 mmHg 44%
    18:00 +21°C° 0 mm 4 mps 713 mmHg 55%
    19:00 +18°C° 0 mm 4 mps 713 mmHg 67%
    20:00 +18°C° 0 mm 4 mps 713 mmHg 72%
    21:00 +17°C° 0 mm 4 mps 713 mmHg 76%
    22:00 +15°C° 0 mm 4 mps 714 mmHg 81%
    23:00 +16°C° 0 mm 3 mps 714 mmHg 81%

    Tomorrow, 23 February, Saturday

    Time Temperature Precipitation Wind Pressure Humidity
    00:00 +16°C° 0 mm 3 mps 713 mmHg 81%
    01:00 +16°C° 0 mm 3 mps 713 mmHg 81%
    02:00 +15°C° 0 mm 2 mps 713 mmHg 84%
    03:00 +14°C° 0 mm 2 mps 713 mmHg 87%
    04:00 +14°C° 0 mm 2 mps 713 mmHg 89%
    05:00 +14°C° 0 mm 2 mps 713 mmHg 86%
    06:00 +15°C° 0 mm 2 mps 714 mmHg 82%
    07:00 +15°C° 0 mm 2 mps 714 mmHg 78%
    08:00 +18°C° 0 mm 3 mps 714 mmHg 63%
    09:00 +20°C° 0 mm 3 mps 715 mmHg 49%
    10:00 +23°C° 0 mm 4 mps 715 mmHg 34%
    11:00 +25°C° 0 mm 4 mps 715 mmHg 31%
    12:00 +27°C° 0 mm 4 mps 715 mmHg 27%
    13:00 +28°C° 0 mm 4 mps 715 mmHg 24%
    14:00 +28°C° 0 mm 4 mps 715 mmHg 26%
    15:00 +28°C° 0 mm 5 mps 715 mmHg 28%
    16:00 +27°C° 0 mm 5 mps 714 mmHg 30%
    17:00 +25°C° 0 mm 5 mps 714 mmHg 41%
    18:00 +21°C° 0 mm 5 mps 714 mmHg 52%
    19:00 +19°C° 0 mm 5 mps 715 mmHg 63%
    20:00 +18°C° 0 mm 4 mps 715 mmHg 69%
    21:00 +17°C° 0 mm 4 mps 716 mmHg 75%
    22:00 +15°C° 0 mm 4 mps 716 mmHg 81%
    23:00 +15°C° 0 mm 4 mps 716 mmHg 80%

    Day after tomorrow, 24 February, Sunday

    Time Temperature Precipitation Wind Pressure Humidity
    00:00 +15°C° 0 mm 4 mps 716 mmHg 78%
    01:00 +14°C° 0 mm 4 mps 716 mmHg 77%
    02:00 +14°C° 0 mm 4 mps 716 mmHg 78%
    03:00 +13°C° 0 mm 4 mps 716 mmHg 79%
    04:00 +12°C° 0 mm 4 mps 716 mmHg 80%
    05:00 +12°C° 0 mm 4 mps 716 mmHg 77%
    06:00 +13°C° 0 mm 4 mps 717 mmHg 75%
    07:00 +13°C° 0 mm 5 mps 717 mmHg 72%
    08:00 +15°C° 0 mm 5 mps 718 mmHg 63%
    09:00 +17°C° 0 mm 5 mps 718 mmHg 54%
    10:00 +20°C° 0 mm 5 mps 718 mmHg 45%
    11:00 +22°C° 0 mm 5 mps 718 mmHg 41%
    12:00 +23°C° 0 mm 5 mps 718 mmHg 36%
    13:00 +25°C° 0 mm 5 mps 718 mmHg 32%
    14:00 +25°C° 0 mm 5 mps 718 mmHg 33%
    15:00 +25°C° 0 mm 5 mps 717 mmHg 34%
    16:00 +25°C° 0 mm 5 mps 717 mmHg 35%
    17:00 +21°C° 0 mm 5 mps 717 mmHg 45%
    18:00 +19°C° 0 mm 4 mps 717 mmHg 55%
    19:00 +17°C° 0 mm 4 mps 717 mmHg 65%
    20:00 +14°C° 0 mm 4 mps 717 mmHg 74%
    21:00 +13°C° 0 mm 3 mps 718 mmHg 82%
    22:00 +11°C° 0 mm 3 mps 718 mmHg 91%
    23:00 +11°C° 0 mm 3 mps 718 mmHg 91%

    25 February, Monday

    Time Temperature Precipitation Wind Pressure Humidity
    00:00 +12°C° 0 mm 2 mps 718 mmHg 91%
    01:00 +12°C° 0 mm 2 mps 718 mmHg 92%
    02:00 +12°C° 0 mm 2 mps 718 mmHg 90%
    03:00 +12°C° 0 mm 2 mps 717 mmHg 88%
    04:00 +13°C° 0 mm 2 mps 717 mmHg 87%
    05:00 +13°C° 0 mm 2 mps 717 mmHg 85%
    06:00 +13°C° 0 mm 2 mps 718 mmHg 84%
    07:00 +13°C° 0 mm 2 mps 718 mmHg 83%
    08:00 +16°C° 0 mm 2 mps 718 mmHg 70%
    09:00 +19°C° 0 mm 2 mps 718 mmHg 57%
    10:00 +21°C° 0 mm 3 mps 719 mmHg 44%
    11:00 +24°C° 0 mm 2 mps 718 mmHg 38%
    12:00 +27°C° 0 mm 2 mps 718 mmHg 32%
    13:00 +29°C° 0 mm 2 mps 718 mmHg 26%
    14:00 +29°C° 0 mm 3 mps 717 mmHg 26%
    15:00 +29°C° 0 mm 3 mps 716 mmHg 26%
    16:00 +29°C° 0 mm 3 mps 716 mmHg 27%
    17:00 +26°C° 0 mm 3 mps 716 mmHg 36%
    18:00 +24°C° 0 mm 3 mps 716 mmHg 46%
    19:00 +21°C° 0 mm 3 mps 716 mmHg 56%
    20:00 +19°C° 0 mm 2 mps 716 mmHg 66%
    21:00 +17°C° 0 mm 2 mps 716 mmHg 77%
    22:00 +15°C° 0 mm 1 mps 716 mmHg 88%
    23:00 +15°C° 0 mm 1 mps 716 mmHg 91%

    26 February, Tuesday

    Time Temperature Precipitation Wind Pressure Humidity
    00:00 +14°C° 0 mm 1 mps 715 mmHg 93%
    01:00 +14°C° 0 mm 1 mps 715 mmHg 96%
    02:00 +14°C° 0 mm 1 mps 715 mmHg 96%
    03:00 +13°C° 0 mm 0 mps 714 mmHg 95%
    04:00 +12°C° 0 mm 0 mps 714 mmHg 95%
    05:00 +13°C° 0 mm 0 mps 714 mmHg 91%
    06:00 +14°C° 0 mm 0 mps 715 mmHg 86%
    07:00 +14°C° 0 mm 0 mps 715 mmHg 82%
    08:00 +19°C° 0 mm 1 mps 715 mmHg 68%
    09:00 +22°C° 0 mm 1 mps 715 mmHg 54%
    10:00 +25°C° 0 mm 2 mps 716 mmHg 40%
    11:00 +27°C° 0 mm 2 mps 715 mmHg 35%
    12:00 +29°C° 0 mm 2 mps 715 mmHg 30%
    13:00 +31°C° 0 mm 2 mps 714 mmHg 24%
    14:00 +32°C° 0 mm 2 mps 714 mmHg 23%
    15:00 +32°C° 0 mm 2 mps 713 mmHg 21%
    16:00 +34°C° 0 mm 2 mps 713 mmHg 20%
    17:00 +30°C° 0 mm 2 mps 713 mmHg 26%
    18:00 +27°C° 0 mm 2 mps 713 mmHg 31%
    19:00 +25°C° 0 mm 2 mps 712 mmHg 37%
    20:00 +23°C° 0 mm 2 mps 713 mmHg 48%
    21:00 +22°C° 0 mm 1 mps 713 mmHg 58%
    22:00 +20°C° 0 mm 1 mps 713 mmHg 69%
    23:00 +19°C° 0 mm 1 mps 713 mmHg 73%

    27 February, Wednesday

    Time Temperature Precipitation Wind Pressure Humidity
    00:00 +19°C° 0 mm 1 mps 712 mmHg 77%
    01:00 +18°C° 0 mm 1 mps 712 mmHg 81%
    02:00 +18°C° 0 mm 1 mps 712 mmHg 79%
    03:00 +18°C° 0 mm 1 mps 712 mmHg 77%
    04:00 +16°C° 0 mm 1 mps 712 mmHg 75%
    05:00 +18°C° 0 mm 1 mps 713 mmHg 67%
    06:00 +19°C° 0 mm 1 mps 713 mmHg 58%
    07:00 +20°C° 0 mm 1 mps 714 mmHg 50%
    08:00 +23°C° 0 mm 2 mps 714 mmHg 41%
    09:00 +26°C° 0 mm 2 mps 715 mmHg 32%
    10:00 +29°C° 0 mm 3 mps 715 mmHg 24%
    11:00 +31°C° 0 mm 3 mps 715 mmHg 23%
    12:00 +33°C° 0 mm 4 mps 715 mmHg 23%
    13:00 +34°C° 0 mm 4 mps 715 mmHg 22%
    14:00 +33°C° 0 mm 4 mps 714 mmHg 25%
    15:00 +32°C° 0 mm 5 mps 714 mmHg 27%
    16:00 +32°C° 0 mm 5 mps 714 mmHg 30%
    17:00 +28°C° 0 mm 5 mps 714 mmHg 43%
    18:00 +25°C° 0 mm 4 mps 714 mmHg 57%
    19:00 +22°C° 0 mm 4 mps 714 mmHg 71%
    20:00 +20°C° 0 mm 3 mps 715 mmHg 77%
    21:00 +19°C° 0 mm 3 mps 715 mmHg 82%
    22:00 +18°C° 0 mm 2 mps 715 mmHg 88%
    23:00 +17°C° 0 mm 2 mps 715 mmHg 91%
    Show more